Other Surface Observations
Issued by NWS Tucson, AZ

Home | Current Version | Previous Version | Text Only | Print | Product List | Glossary On
Versions: 1 2 3 4 5 6 7 8 9 10 11 12 13 14 15 16 17 18 19 20 21 22 23 24 25 26 27 28 29 30 31 32 33 34 35 36 37 38 39 40 41 42 43 44 45 46 47 48 49 50
000
SXUS55 KTWC 190415
OSOTWC

WEATHER ROUNDUP FOR SOUTHEAST ARIZONA
NATIONAL WEATHER SERVICE TUCSON AZ
915 PM MST SAT APR 18 2015

AZZ504>506-514-190515-
LOCATION       SKY/WX    TMP DP  RH WIND       PRES   REMARKS
TUCSON         CLEAR     70  16  12 NW3       29.95R
DAVIS-MONTHAN  CLEAR     66  17  15 CALM      29.94R
CHILDRENS PARK N/A       74  16  11 N3                PIMA CO DEQ
ALVERNON/22ND  N/A      N/A N/A N/A N/A               PIMA CO DEQ
CHERRY/GLENN   N/A      N/A N/A N/A N/A               PIMA CO DEQ
TANGERINE      N/A       72 N/A N/A N4                PIMA CO DEQ
CONTL RANCH    N/A       75  19  12 N2                PIMA CO DEQ
GRANT/1ST      N/A       75  15  10 NW4               PIMA CO DEQ
CRAYCROFT/22ND N/A      N/A N/A N/A N/A               PIMA CO DEQ
GOLFLINKS/KOLB N/A      N/A N/A N/A N/A               PIMA CO DEQ
AJO/12TH       N/A       76  16  10 W3                PIMA CO DEQ
SAGUARO EAST   N/A      N/A N/A N/A N/A               PIMA CO DEQ
FAIRGROUNDS    N/A       69 N/A N/A N6                PIMA CO DEQ
SAGUARO        N/A       71  14  11 NW5G12            *SABINO CYN
SAN CARLOS     N/A       70  19  14 W3                *SAN CARLOS
GREEN VALLEY   N/A       71  16  12 W4                PIMA CO DEQ
HORSE CAMP CYN N/A       66  15  14 W10G21            *ARAVAIPA CYN
RINCON MTNS    N/A       45   9  23 NW3G12            *NR MANNING CAMP
$$

AZZ509>511-190515-
LOCATION       SKY/WX    TMP DP  RH WIND       PRES   REMARKS
SAFFORD        CLEAR     66  16  14 NW14      29.91R
STRAY HORSE    N/A       46  18  32 NW5G16            *
TRAIL CABIN    N/A       55  16  21 W5G14             *N OF GRANVILLE
BLACK HILLS    N/A       63  16  16 CALM              *N OF FT THOMAS
DRY LAKE       N/A       49  16  26 W6G12             *NATANES MTNS
NOON CREEK     N/A       63  16  16 SW6G16            *PINALENO MTNS
COLUMBINE      N/A       38  -2  18 S3G11             *PINALENO MTNS
GUTHRIE        N/A       57  13  17 W22G32            *SW OF GUTHRIE
$$

AZZ502-503-513-190515-
LOCATION       SKY/WX    TMP DP  RH WIND       PRES   REMARKS
NOGALES        CLEAR     58  21  24 NE5       30.00R
SELLS          N/A       68  14  12 SW2               *
SASABE         N/A       61  23  23 W8                *ALTAR VLY
HOPKINS        N/A       52  11  19 NW13G18           *SANTA RITA MTNS
CARR CYN       NOT AVBL
$$

AZZ507-508-512-190515-
LOCATION       SKY/WX    TMP DP  RH WIND       PRES   REMARKS
SIERRA VISTA   CLEAR     59  16  18 W10       30.05R
DOUGLAS        CLEAR     54  20  26 N12       30.01R
EMPIRE MTNS    N/A       49  18  29 W5                *LAS CIENEGAS NCA
MULESHOE RANCH N/A       64  12  13 NW8G20            *PRESERVE
HEADQUARTERS   N/A       52  12  20 E2                *CHIRICAHUA MTNS
$$

.............................NOTES.............................
THIS IS AN AUTOMATED COLLECTIVE WITH MINIMAL QUALITY CONTROL.
PIMA CO DEQ SITES HAVE NONSTANDARD WIND SENSOR HEIGHTS.
PIMA CO DEQ SITES DO NOT REPORT WIND GUSTS.
* INDICATES WIND SENSORS LOCATED AT 20 FEET INSTEAD OF 33 FEET.
..............................KEY..............................
SKY/WX - SKY CONDITION/WEATHER
TMP    - TEMPERATURE IN FAHRENHEIT
DP     - DEWPOINT IN FAHRENHEIT
RH     - RELATIVE HUMIDITY IN PERCENT
WIND   - DIRECTION AND SPEED IN MILES PER HOUR (MPH)
VRB    - VARIABLE WIND DIRECTION
PRES   - MEAN SEA LEVEL PRESSURE IN INCHES OF MERCURY
         F - FALLING PRESSURE   R - RISING PRESSURE
         S - STEADY PRESSURE
VSB    - VISIBILITY IN MILES
HX     - HEAT INDEX IN FAHRENHEIT
WCI    - WIND CHILL INDEX IN FAHRENHEIT
N/A    - NOT AVAILABLE
AFB    - AIR FORCE BASE
         DAVIS-MONTHAN IS DAVIS-MONTHAN AIR FORCE BASE
CYN    - CANYON
MTNS   - MOUNTAINS
NCA    - NATIONAL CONSERVATION AREA
NR     - NEAR
VLY    - VALLEY
CONTL  - CONTINENTAL
PIMA CO DEQ - PIMA COUNTY DEPT OF ENVIRONMENTAL QUALITY



USA.gov is the U.S. government's official web portal to all federal, state and local government web resources and services.